Zurück zum Katalog

USA 476

AktivMilitärVLEO
NORAD 62545·PAYLOAD·🇺🇸 United States

Gestartet Jan 10, 2025 von Vandenberg Space Force Base

Loading…

Nächste Überflüge (nächste 24 Stunden)

TLE

VeraltetSource: Mike McCants

Epoche: Aug 20, 2026, 21:03 UTC

1 62545U 25005P   26232.87762011 0.00000000  00000-0  00000-0 0    04
2 62545  70.0215 254.6360 0003000 171.0169 188.9830 14.96713464    05

Verfolge USA 476 in Echtzeit mit AllMySat

Download on the App Store